RH
72 74 81 84 84 78 85 92 90 86 88 89 90 91 92 93 94 95 96 96 97 98 98 98 98 96 97 97 97 98 98 98 97 99 96 97 97 97 98 93 92 91 89
72 74 79 81 78 68 71 81 83 83 77 78 75 74 71 76 79 88 92 92 96 97 95 95 95 89 94 94 96 97 98 98 98 99 98 99 99 96 95 96 89 82 86
76 77 81 83 83 86 86 82 78 80 80 77 76 78 78 76 76 78 80 85 89 91 92 93 93 92 96 97 97 98 99 99 100 98 99 100 100 99 99 96 92 86 70
79 82 87 88 88 89 88 86 85 84 83 84 85 85 86 86 88 89 89 89 89 90 91 92 91 92 95 97 99 100 100 99 99 98 99 98 98 99 99 98 98 83 81
81 81 80 80 88 90 91 94 93 92 81 78 84 84 84 83 86 96 96 96 97 96 96 94 95 90 88 90 94 100 99 98 98 99 98 98 98 98 97 93 92 89 76
74 78 74 76 79 84 85 84 89 89 92 94 93 88 93 80 83 88 94 95 95 97 98 99 99 99 94 91 93 90 93 99 100 99 98 97 97 87 87 90 88 96 92
77 78 77 80 86 88 90 93 96 97 97 95 93 92 92 87 84 88 94 97 98 99 100 100 99 98 99 99 98 97 96 93 83 88 86 86 82 77 88 95 87 95 91
83 83 81 87 91 94 96 97 98 98 97 97 98 98 97 89 86 86 89 96 98 98 99 98 98 99 96 95 94 94 91 82 76 69 81 82 82 80 81 85 85 91 87
92 90 89 93 96 97 98 99 98 98 96 98 98 98 99 98 77 81 93 97 98 98 98 93 90 91 74 58 76 88 82 78 56 61 60 56 55 56 62 88 96 97 94
96 95 96 97 97 99 98 100 97 97 98 93 94 98 80 96 58 58 83 91 89 89 85 70 54 64 60 61 88 86 89 82 81 77 71 68 65 67 54 70 96 97 98
89 90 92 93 95 95 98 96 95 97 98 98 97 96 94 82 77 62 59 72 65 64 65 68 77 63 65 66 65 84 80 76 72 80 79 77 63 62 68 74 78 93 98
87 90 90 94 92 92 95 96 99 93 77 76 76 74 71 76 59 59 56 58 65 72 73 84 86 65 62 61 62 58 54 62 76 75 65 61 75 91 95 95 89 96 94
90 92 93 93 95 95 93 89 70 63 58 55 55 58 51 48 62 57 56 55 61 70 77 71 62 59 58 60 54 50 51 66 64 72 74 94 97 97 97 96 95 92 93
87 72 49 47 48 49 48 51 53 54 52 45 44 50 56 59 78 79 74 81 68 69 69 82 64 59 45 46 51 52 57 62 66 86 92 80 85 96 96 97 98 97 98
51 48 49 50 49 74 79 57 59 67 57 50 61 57 57 70 68 60 63 70 80 69 70 69 66 54 65 59 60 65 74 75 90 90 97 89 71 75 83 86 88 93 97
50 54 54 52 53 71 81 79 58 59 53 53 56 60 61 54 54 56 58 60 62 61 71 69 71 82 82 67 71 76 84 87 85 78 88 87 91 93 94 92 95 96 95
52 54 59 57 66 72 75 74 72 68 52 53 49 45 46 49 53 54 58 61 62 60 67 73 84 88 91 95 96 97 97 91 91 92 94 96 96 96 85 94 93 93 94
50 56 61 64 65 66 60 48 41 38 36 35 44 44 45 46 48 51 56 62 69 58 57 64 87 87 92 95 96 97 96 94 82 82 91 89 93 95 94 92 90 93 94
47 68 63 64 60 54 45 41 38 36 36 36 39 38 43 41 44 48 54 73 74 67 61 80 85 91 93 94 94 96 98 96 93 94 97 98 96 99 94 94 92 83 86
51 59 58 54 49 45 42 40 39 37 36 37 39 41 44 48 64 67 65 63 63 62 62 83 85 93 95 96 95 96 97 96 96 95 97 96 96 97 96 94 90 93 91
54 61 58 48 48 43 41 41 40 39 38 39 42 39 42 56 67 69 65 59 60 62 82 84 91 93 96 96 97 97 96 95 96 95 96 94 96 96 92 91 92 90 91
57 56 58 46 45 43 41 40 41 40 40 41 44 42 44 54 59 59 57 58 60 63 82 88 91 92 93 94 94 96 96 95 94 94 95 94 94 92 92 93 92 92 92
56 55 56 46 42 42 46 43 43 41 41 42 46 44 46 51 55 59 62 63 68 84 88 92 94 95 95 95 95 96 96 93 91 92 94 94 93 92 91 93 91 92 90
55 56 55 46 43 43 44 50 48 43 40 42 48 46 52 57 61 65 74 92 94 95 96 96 96 94 93 93 94 96 95 93 93 94 94 94 93 91 91 92 91 91 91
88 68 50 46 42 45 43 47 42 41 40 42 43 48 56 63 74 92 94 95 96 97 96 96 96 96 95 95 94 93 92 90 92 94 95 95 94 93 93 92 91 89 89
96 96 57 43 45 43 46 44 44 46 47 66 69 79 83 90 94 95 95 96 96 95 94 95 95 95 95 94 94 93 90 89 90 91 96 97 96 94 94 95 94 93 92
Wind_Speed
6 6 7 6 6 6 7 6 6 6 6 7 6 6 6 6 6 5 4 3 3 2 2 2 4 3 3 3 2 3 2 2 7 1 1 2 2 4 6 4 3 4 2
5 5 6 6 6 7 8 6 7 8 8 7 8 8 9 9 8 7 6 6 6 3 2 4 5 4 5 4 3 4 3 2 2 3 1 3 2 4 2 3 4 2 3
5 5 5 6 7 7 7 6 6 6 6 7 7 8 7 7 8 7 6 6 6 6 6 5 4 3 1 1 1 3 2 2 1 2 3 1 1 3 2 3 3 3 6
5 5 6 6 7 6 6 6 6 6 6 6 5 6 6 7 8 7 7 7 7 7 6 5 4 2 2 3 3 2 3 3 2 3 2 2 1 2 1 2 2 3 4
4 4 6 6 5 6 7 7 8 7 6 6 6 7 7 7 6 6 6 6 7 7 8 6 4 6 7 5 2 2 3 2 2 2 2 1 2 2 3 2 3 1 3
5 6 5 7 8 7 7 8 8 8 7 7 8 8 7 7 13 12 9 7 7 7 6 7 8 12 10 9 8 5 3 2 1 1 1 1 1 2 1 2 2 2 2
5 5 6 6 6 6 7 8 8 6 7 8 8 8 8 8 14 14 14 8 7 7 7 6 6 6 8 7 12 11 7 2 1 1 1 1 1 0 2 1 2 2 3
6 6 6 6 6 7 7 6 6 4 6 5 7 7 6 8 14 14 14 6 6 6 5 4 5 3 3 4 3 1 2 3 3 1 2 2 2 3 3 4 3 2 2
5 5 6 6 5 5 6 5 5 6 6 5 5 6 6 5 12 13 9 5 4 3 2 2 2 1 1 3 2 3 3 3 6 4 2 4 7 9 5 3 1 2 3
5 6 6 4 4 5 5 5 5 5 6 4 5 4 6 4 9 8 5 2 2 1 2 3 6 4 6 6 5 4 3 2 3 4 4 5 5 5 8 2 3 3 3
5 6 5 5 5 5 4 4 4 3 3 5 4 1 3 1 6 10 9 3 2 2 3 3 3 5 6 5 3 1 3 2 4 3 3 3 3 3 3 2 4 4 3
5 5 5 6 5 6 6 3 1 3 4 3 3 2 2 4 5 6 6 6 6 2 2 1 3 5 5 6 5 7 6 4 2 3 2 2 2 2 2 2 3 3 4
5 5 4 4 4 4 4 4 2 3 3 3 2 1 2 2 3 6 7 5 5 2 1 4 3 5 6 4 7 6 5 1 2 1 2 2 2 3 3 3 3 4 5
6 6 5 5 4 3 3 2 3 2 2 2 2 1 1 1 1 2 2 3 5 4 4 4 6 7 6 5 4 4 2 2 2 2 2 2 2 2 2 1 1 2 3
6 6 5 3 4 4 3 3 3 2 3 3 2 2 1 1 2 2 3 2 2 4 3 2 3 2 2 3 3 3 3 3 1 2 1 2 5 5 5 4 4 4 5
6 5 5 4 4 3 4 1 3 4 4 4 5 4 1 3 4 6 7 6 7 8 1 2 2 1 2 3 3 3 2 3 3 4 3 4 5 5 5 4 3 4 6
7 6 4 5 4 4 4 4 3 2 2 3 3 2 2 3 5 7 7 7 8 9 1 1 2 2 2 2 2 2 2 2 3 3 3 4 4 4 9 5 5 6 7
7 13 5 5 5 4 4 4 3 3 2 2 4 4 4 4 6 7 8 5 3 3 1 2 2 3 2 2 2 2 3 3 4 5 5 6 5 5 6 7 7 8 8
7 5 5 4 4 5 4 3 3 2 2 2 1 2 4 4 8 8 8 2 3 3 3 2 3 3 3 3 3 3 3 4 4 4 3 3 5 3 8 7 8 16 16
6 11 8 5 4 4 4 4 3 3 3 2 2 2 1 2 2 2 3 3 3 3 3 3 3 3 3 3 4 4 4 5 5 4 5 5 5 4 8 9 9 10 9
6 5 11 4 4 4 4 4 4 3 3 3 3 3 6 3 3 3 3 3 4 4 3 4 4 4 3 4 4 4 4 6 5 6 6 6 6 7 8 9 10 10 10
6 6 5 5 4 4 4 4 4 4 3 3 3 3 7 1 3 4 4 4 4 4 3 4 4 4 4 4 5 5 5 6 6 6 7 7 7 8 8 9 9 10 10
6 6 5 4 5 7 5 4 4 4 4 3 3 3 3 3 4 4 4 4 4 3 4 4 4 5 4 5 5 5 6 8 8 7 8 8 8 9 9 10 10 11 10
6 6 6 5 5 4 4 4 4 6 4 3 3 3 4 4 4 4 4 4 4 4 4 4 5 7 7 7 5 5 7 8 8 8 11 10 10 12 10 11 11 14 13
6 7 5 5 5 5 4 4 4 4 4 3 3 3 4 4 4 4 4 4 4 5 5 5 5 7 10 11 10 11 13 21 15 15 10 13 15 16 14 12 14 14 17
6 6 7 5 5 4 4 4 4 4 4 3 3 3 3 4 4 4 4 4 5 6 6 5 7 10 11 10 12 14 20 21 17 21 13 10 11 12 11 14 18 14 17
Wind_Direction
11 354 1 1 9 42 49 16 356 28 25 19 16 31 30 21 9 30 44 36 81 101 42 173 111 119 108 96 91 129 262 226 233 118 126 134 117 153 152 161 150 192 183
356 2 10 20 20 40 50 20 25 40 33 30 26 33 36 29 22 26 32 15 12 21 90 118 129 126 138 141 156 154 173 202 158 152 123 147 146 184 159 151 191 202 219
358 20 23 33 29 31 35 26 36 47 46 41 39 38 37 38 38 29 31 43 49 35 25 27 50 66 26 83 143 148 158 112 70 121 131 118 144 145 148 213 222 234 244
28 39 46 43 35 32 28 26 30 32 50 50 48 52 45 43 40 34 37 36 53 53 55 58 51 54 113 90 75 57 78 94 79 101 78 103 102 115 167 192 218 218 248
45 35 61 62 50 43 38 30 24 16 41 48 52 54 55 57 60 55 53 52 60 58 44 49 59 73 85 93 100 58 55 68 72 68 88 122 178 166 199 189 197 208 264
47 33 60 59 52 50 47 49 48 40 34 47 52 56 50 58 62 70 74 69 66 70 68 49 40 40 53 83 96 102 84 69 58 81 116 157 211 195 191 208 167 110 304
60 57 60 71 76 67 64 55 46 39 44 47 46 51 54 61 69 74 77 68 66 56 48 45 54 45 39 39 36 35 24 8 182 188 182 154 244 145 109 122 192 172 213
67 70 68 72 70 68 68 63 60 50 48 50 48 36 47 67 75 81 81 62 64 61 66 70 66 38 54 77 78 36 289 307 307 311 198 210 185 179 178 182 193 219 286
98 86 81 77 73 79 79 78 77 81 74 53 41 43 44 51 70 75 77 57 53 49 64 61 62 23 323 336 74 358 310 344 343 230 296 302 305 303 261 102 311 83 313
112 98 87 98 102 93 92 88 89 85 85 83 75 23 71 359 60 86 99 100 78 57 348 14 36 40 16 5 65 35 35 343 346 350 346 340 329 307 294 223 165 178 190
124 115 131 124 116 113 111 109 115 109 96 96 93 60 353 44 39 60 66 64 68 63 51 27 353 3 1 355 1 16 250 241 325 326 307 301 305 307 289 242 189 156 168
141 146 152 159 153 149 139 137 148 124 104 111 122 67 4 8 57 45 44 50 60 60 49 358 309 328 325 322 330 294 314 352 328 299 292 293 291 306 290 277 231 204 206
153 151 157 160 167 171 169 177 174 169 132 143 143 119 304 339 1 8 17 19 0 89 245 294 310 313 314 317 305 312 344 353 286 286 298 272 231 249 278 295 294 274 251
179 186 173 158 152 125 100 117 121 126 139 145 131 113 301 10 19 355 17 4 3 353 344 337 313 314 325 324 349 341 320 271 241 240 253 287 299 338 321 288 295 290 278
180 180 174 163 144 124 104 158 140 197 167 161 158 155 146 269 266 310 321 286 275 294 360 351 338 335 345 343 341 341 342 333 326 317 298 307 313 314 310 303 288 292 285
175 177 183 165 176 162 150 92 138 151 122 114 138 151 237 278 317 328 325 320 319 320 40 327 313 310 301 319 319 313 310 326 313 308 298 303 286 278 280 274 260 263 283
175 178 184 172 178 173 187 185 193 266 231 205 204 221 256 282 319 322 319 312 326 325 226 273 252 267 276 285 273 249 256 261 278 280 285 280 270 270 307 288 279 273 275
176 186 177 179 183 186 190 188 175 187 207 274 262 241 265 303 312 310 303 327 324 331 291 282 264 265 267 261 263 255 274 269 274 290 278 282 274 277 288 284 283 279 276
174 174 170 179 184 188 176 168 177 184 208 232 283 301 319 285 308 312 307 210 257 272 278 268 251 252 258 260 263 265 252 265 264 262 269 281 277 252 280 274 277 284 285
174 179 175 171 177 166 174 177 191 202 214 243 262 255 247 345 311 296 293 275 271 268 272 252 259 249 249 250 259 259 268 272 272 270 268 263 259 249 266 270 268 270 268
172 177 181 173 173 181 185 194 199 198 211 232 252 253 261 232 250 265 272 270 267 268 255 252 255 256 247 250 249 257 257 269 266 262 262 266 259 264 261 261 265 265 268
168 178 170 178 172 180 191 190 193 203 214 234 257 266 284 270 260 263 263 265 265 263 244 251 263 251 248 246 250 250 252 265 266 260 257 258 259 262 263 263 264 266 266
166 174 178 171 177 193 199 189 196 205 219 227 243 251 251 253 258 261 265 269 272 262 261 254 258 267 254 246 237 234 251 262 259 252 259 261 260 262 262 264 265 266 263
167 179 182 183 177 186 189 196 207 219 219 220 239 247 253 257 260 265 267 268 270 269 260 258 256 260 273 270 255 234 241 253 256 255 253 259 262 269 262 261 262 262 262
183 192 180 185 189 189 196 203 210 214 225 223 232 241 252 259 263 262 266 265 267 264 261 260 256 262 264 265 266 265 265 277 274 263 250 244 250 253 255 257 260 261 262
174 182 206 180 187 191 195 204 213 212 222 220 227 236 240 250 254 260 269 269 269 272 280 275 273 266 269 271 270 275 285 287 287 284 282 271 266 265 263 262 261 260 264